Terug naar catalogus

CZ-4 DEB

ActiefSSO
NORAD 26155·DEBRIS·🇨🇳 China

Gelanceerd Oct 14, 1999 vanaf Taiyuan Satellite Launch Center

Loading…

Volgende Passages (komende 24 uur)

TLE

VersSource: Space-Track

Epoch: Sep 14, 2026, 03:51 UTC

1 26155U 99057AR  26257.16076567  .00005066  00000-0  85063-3 0  9991
2 26155  98.5294 325.9898 0117750 215.3091 165.3702 14.65640019382445

Volg CZ-4 DEB in realtime met AllMySat

Download on the App Store